Terug naar catalogus

THORAD AGENA D DEB

ActiefSSO
NORAD 42494·DEBRIS·🇺🇸 United States

Gelanceerd Apr 8, 1970 vanaf Vandenberg Space Force Base

Loading…

Volgende Passages (komende 24 uur)

TLE

VersSource: Space-Track

Epoch: Sep 13, 2026, 10:50 UTC

1 42494U 70025QY  26256.45181615  .00000279  00000-0  41891-3 0  9993
2 42494  99.6928 336.1092 0097411 303.3399  55.8445 13.60342612623453

Volg THORAD AGENA D DEB in realtime met AllMySat

Download on the App Store